Regional Weather Roundup
Issued by NWS Cleveland, OH

Home | Current Version | Previous Version | Graphics & Text | Print | Product List | Glossary Off
Versions: 1 2 3 4 5 6 7 8 9 10 11 12 13 14 15 16 17 18 19 20 21 22 23 24 25 26 27 28 29 30 31 32 33 34 35 36 37 38 39 40 41 42 43 44 45 46 47 48 49 50

000
ASUS41 KCLE 211610
RWRCLE
OHIO REGIONAL WEATHER ROUNDUP
NATIONAL WEATHER SERVICE CLEVELAND, OH
1200 PM EDT SUN SEP 21 2014

NOTE: "FAIR" INDICATES FEW OR NO CLOUDS BELOW 12,000 FEET WITH NO
SIGNIFICANT WEATHER AND/OR OBSTRUCTIONS TO VISIBILITY.

OHZ001>008-015>018-024>027-034-035-043-044-211700-
   NORTHWEST OHIO

CITY           SKY/WX    TMP DP  RH WIND       PRES   REMARKS
DEFIANCE       PTSUNNY  N/A N/A N/A W8        29.77R
FINDLAY        MOSUNNY   71  55  56 W18G30    29.75S
TOLEDO EXPRESS PTSUNNY   68  52  56 W21G26    29.73S
TOLEDO EXEC    MOSUNNY   69  49  48 W24G31    29.73S
LIMA           SUNNY     69  53  56 W15G26    29.79S
$$

OHZ009>014-019>023-028>033-038-089-211700-
   NORTHEAST OHIO

CITY           SKY/WX    TMP DP  RH WIND       PRES   REMARKS
CLE-HOPKINS    MOSUNNY   72  58  61 W22G33    29.72S
CLE-LAKEFRONT  MOSUNNY   70  60  70 W24G35    29.68R
CUY CO. ARPT   MOSUNNY   72  68  88 W21G35    29.71S
LORAIN-ELYRIA  MOSUNNY   75  59  57 W14G31    29.72S
ASHTABULA      MOSUNNY   71  63  75 W15G23    29.69S
AKRON-CANTON   MOSUNNY   76  61  59 W14G22    29.72S
WOOSTER        MOSUNNY   78  57  48 W18G28    29.73F
MANSFIELD      MOSUNNY   73  58  59 W16G24    29.75S
YOUNGSTOWN     MOSUNNY   76  62  62 W20G30    29.70F
$$

OHZ042-051>053-060>062-070>072-077>081-211700-
  SOUTHWEST OHIO

CITY           SKY/WX    TMP DP  RH WIND       PRES   REMARKS
CINC-COVINGTON PTSUNNY   77  63  61 W17G26    29.86S
CINC-LUNKEN    MOSUNNY   77  62  59 W15G23    29.85R
HAMILTON       MOSUNNY   74  56  53 NW20G26   29.86R
DAYTON         MOSUNNY   74  44  34 NW22G29   29.84R
WRIGHT-PAT AFB SUNNY     74  45  35 W16G25    29.82R
DAYTON GENERAL SUNNY     74  54  49 NW17G25   29.83R
WILMINGTON     MOSUNNY   75  60  59 W17G26    29.82S
$$

OHZ036-037-039>041-045>050-054>059-063>069-073>076-082>088-211700-
  CENTRAL AND SOUTHEAST OHIO

CITY           SKY/WX    TMP DP  RH WIND       PRES   REMARKS
COLUMBUS       MOSUNNY   81  60  48 W18G24    29.77S
OSU AIRPORT    MOSUNNY   75  61  61 W14G25    29.78R
BOLTON FIELD   MOSUNNY   79  61  53 W18G26    29.79
RICKENBACK AFB PTSUNNY   75  62  64 W16G23    29.78S
NEWARK         MOSUNNY   78  61  55 W16G24    29.76F
MARION         SUNNY     74  53  48 W20G25    29.77R
LANCASTER      MOSUNNY   79  63  57 W13       29.79S
ZANESVILLE     PTSUNNY   77  64  64 SW16      29.77F
NEW PHILLY     PTSUNNY   76  65  68 SW8G17    29.75F
$$



USA.gov is the U.S. government's official web portal to all federal, state and local government web resources and services.